Observations for Trim Patrick St
| Time | AQI | Temp °C | Hum % | Pres Pa | CO μg/m³ | H₂S μg/m³ | NO μg/m³ | NO₂ μg/m³ | O₃ μg/m³ | SO₂ μg/m³ | PM1 μg/m³ | PM2.5 μg/m³ | PM10 μg/m³ |
|---|---|---|---|---|---|---|---|---|---|---|---|---|---|
| Thursday 27 August 2026 | |||||||||||||
| 17:21 | 3 | 21.3 | 74 | 38,460 | 0 | 2.93 | 2.59 | 19.48 | 39.14 | 3.73 | 17.43 | 21.25 | 23.37 |
| 17:20 | 3 | 21.3 | 74 | 38,460 | 0 | 3.28 | 3.01 | 12.67 | 45.03 | 3.56 | 12.29 | 19.1 | 21.01 |
| 17:19 | 3 | 21.4 | 75 | 38,460 | 0.02 | 6.23 | 3.21 | 35.77 | 38.29 | 4.5 | 17.43 | 23.36 | 25.69 |
| 17:18 | 3 | 21.4 | 74 | 38,460 | 0 | 4.01 | 3.35 | 28.28 | 37.45 | 3.87 | 17.43 | 23.39 | 25.73 |
| 17:17 | 3 | 21.4 | 74 | 38,460 | 0.01 | 4.75 | 3.55 | 37.38 | 33.61 | 4.4 | 20 | 29.82 | 30.27 |
| 17:16 | 3 | 21.4 | 74 | 38,460 | 0 | 3.93 | 3.21 | 29.7 | 39.27 | 2.81 | 18.29 | 26.98 | 29.68 |
| 17:15 | 3 | 21.4 | 74 | 38,460 | 0 | 3.19 | 2.5 | 20.46 | 50.26 | 2.46 | 22.57 | 31.95 | 33.94 |
| 17:13 | 3 | 21.4 | 74 | 38,460 | 0 | 3.27 | 3.65 | 15.85 | 47.38 | 2.87 | 18.29 | 24.84 | 27.33 |
| 17:11 | 3 | 21.5 | 74 | 38,460 | 0.06 | 7.94 | 3.32 | 50.41 | 30.05 | 3.28 | 17.43 | 24.12 | 26.53 |
| 17:10 | 3 | 21.5 | 74 | 38,460 | 0.31 | 11.11 | 3.61 | 65.1 | 18.33 | 4.47 | 14.86 | 20.59 | 22.65 |
| 17:09 | 3 | 21.5 | 74 | 38,460 | 0.13 | 4.48 | 3.18 | 15.14 | 54.53 | 3.67 | 16.57 | 22.03 | 24.23 |
| 17:08 | 3 | 21.5 | 74 | 38,460 | 0 | 3.08 | 1.64 | 15.54 | 42.51 | 4.07 | 19.14 | 27.03 | 29.74 |
| 17:07 | 3 | 21.5 | 74 | 38,460 | 0 | 3.35 | 1.86 | 15.34 | 44.86 | 3.5 | 18.29 | 26.32 | 28.95 |
| 17:06 | 3 | 21.5 | 74 | 38,460 | 0 | 4.53 | 1.7 | 16.66 | 57.24 | 3.03 | 16.57 | 24.15 | 26.57 |
| 17:05 | 3 | 21.5 | 73 | 38,460 | 0 | 1.9 | 1.02 | 12.99 | 50.82 | 3.72 | 15.71 | 22.79 | 25.07 |
| 17:03 | 3 | 21.6 | 74 | 38,460 | 0 | 2.29 | 1.4 | 14.58 | 58.34 | 2.38 | 18.29 | 25.58 | 28.14 |
| 17:01 | 3 | 21.6 | 73 | 38,460 | 0 | 2.52 | 1.55 | 14.17 | 53.95 | 3.36 | 16.57 | 22.81 | 25.09 |
| 17:00 | 3 | 21.6 | 73 | 38,460 | 0 | 0.91 | 2.15 | 12.75 | 50.35 | 2.31 | 12.29 | 19.23 | 21.15 |
| 16:59 | 3 | 21.6 | 74 | 38,460 | 0 | 3.08 | 1.81 | 14.57 | 56.57 | 2.38 | 14.86 | 22.76 | 25.04 |
| 16:58 | 3 | 21.6 | 73 | 38,460 | 0 | 2 | 1.69 | 27.74 | 42.88 | 2.55 | 17.43 | 24.23 | 26.65 |